#timestamp,LO_Frequency,Hit,StdDev 
1514772015.7,286047005.4,N
1514772035.6,286047005.0,N
1514772055.4,286047005.3,N
1514772075.3,286047004.6,N
1514772095.1,286047007.2,N
1514772096.0,286047007.2,N
1514772115.8,286047004.9,N
1514772135.7,286047005.7,N
1514772155.5,286047003.0,N
1514772175.3,286047004.3,N
1514772195.2,286047003.1,N
1514772215.0,286047004.2,N
1514772215.9,286047004.2,N
1514772235.8,286047001.9,N
1514772255.6,286047001.9,N
1514772275.4,286047004.0,N
1514772295.3,286047003.6,N
1514772315.1,286047005.6,N
1514772335.9,286047004.6,N
1514772355.7,286047007.1,N
1514772375.5,286047008.5,N
1514772395.4,286047010.0,N
1514772415.2,286047012.3,Y
1514772435.0,286047006.8,P
1514772435.9,286047006.8,P
1514772455.8,286047008.9,P
1514772475.6,286047008.9,Y
1514772495.5,286047001.3,P
1514772515.3,286047001.6,N
1514772535.1,286047002.2,N
1514772555.9,286047004.0,N
1514772575.7,286047002.0,N
1514772595.6,286047004.4,N
1514772615.4,286047004.2,N
1514772635.2,286047003.0,N
1514772655.1,286047005.4,Y
1514772656.0,286047005.4,P
1514772675.8,286047001.9,N
1514772695.7,286047003.6,N
1514772715.5,286047001.8,N
1514772735.3,286047003.9,N
1514772755.2,286047001.5,N
1514772775.0,286047001.8,N
1514772775.9,286047001.8,N
1514772795.8,286047002.1,N
1514772815.6,286047003.8,Y
1514772835.4,286047000.2,P
1514772855.3,286047001.1,N
1514772875.1,286047001.1,N
1514772895.8,286047000.8,N
1514772915.7,286046999.4,N
1514772935.5,286046999.4,N
1514772955.4,286046997.1,N
1514772975.2,286046996.9,N
1514772995.0,286046999.6,N
1514772995.9,286046999.6,N
1514773015.8,286046998.4,N
1514773035.6,286046999.1,N
1514773055.5,286046997.0,N
1514773075.3,286046997.7,N
1514773095.1,286046998.9,N
1514773115.9,286047000.8,N
1514773135.7,286046998.2,N
1514773155.5,286047002.8,N
1514773175.4,286047000.2,N
1514773195.2,286047002.7,N
1514773215.1,286047011.9,Y
1514773216.0,286047001.9,P
1514773235.8,286047002.0,N
1514773255.6,286047002.5,N
1514773275.5,286047001.8,N
1514773295.3,286047001.5,N
1514773315.2,286047004.1,Y
1514773335.9,286047000.2,P
1514773355.7,286047002.5,P
1514773375.6,286047002.0,N
1514773395.4,286047001.7,N
1514773415.3,286047004.3,Y
1514773435.1,286047002.6,P
1514773436.0,286047002.6,P
1514773455.8,286047002.5,P
1514773475.7,286047002.1,Y
1514773495.5,286046998.5,P
1514773515.3,286047000.7,N
1514773535.2,286047000.7,N
1514773555.0,286047000.7,N
1514773555.9,286047000.7,N
1514773575.8,286047000.1,N
1514773595.6,286047002.8,N
1514773615.4,286047000.3,N
1514773635.3,286047001.0,N
1514773655.1,286047001.9,N
1514773675.9,286047001.0,N
1514773695.7,286046998.2,N
1514773715.5,286046998.2,N
1514773735.4,286047000.8,N
1514773755.2,286047001.1,N
1514773775.0,286047000.6,N
1514773775.9,286047000.6,N
1514773795.8,286047001.2,N
1514773815.6,286046999.9,N
1514773835.5,286047000.9,N
1514773855.3,286046998.3,N
1514773875.1,286046998.6,N
1514773895.9,286046996.5,N
1514773915.7,286046998.1,N
1514773935.5,286047000.0,N
1514773955.4,286047000.0,N
1514773975.2,286047000.2,N
1514773995.1,286047002.5,N
1514773996.0,286047002.5,N
1514774015.8,286047002.2,N
1514774035.6,286047002.6,N
1514774055.5,286047002.6,N
1514774075.3,286047000.0,N
1514774095.2,286047000.1,N
1514774115.9,286047001.5,N
1514774135.7,286047002.5,N
1514774155.6,286047002.1,N
1514774175.4,286047003.6,N
1514774195.2,286047003.2,N
1514774215.1,286047006.0,Y
1514774216.0,286047006.0,P
1514774235.8,286047003.4,N
1514774255.7,286047003.8,N
1514774275.5,286047003.3,N
1514774295.3,286047005.9,Y
1514774315.2,286047002.7,P
1514774335.0,286047002.4,P
1514774335.9,286047002.4,P
1514774355.8,286046999.8,N
1514774375.6,286047002.8,N
1514774395.4,286047004.2,Y
1514774415.3,286047001.6,P
1514774435.1,286046999.8,N
1514774455.9,286047002.8,N
1514774475.7,286047002.3,N
1514774495.5,286046999.7,N
1514774515.4,286046999.7,N
1514774535.2,286046999.8,N
1514774555.0,286047000.3,N
1514774555.9,286047000.3,N
1514774575.8,286047002.6,N
1514774595.6,286047000.5,N
1514774615.5,286047002.4,N
1514774635.3,286047000.6,N
1514774655.1,286047000.9,N
1514774675.9,286046999.0,N
1514774695.7,286046998.2,N
1514774715.6,286047001.2,N
1514774735.4,286047001.0,N
1514774755.2,286047000.7,N
1514774775.1,286047000.2,N
1514774776.0,286047000.2,N
1514774795.8,286047000.8,N
1514774815.6,286046998.6,N
1514774835.5,286047001.2,N
1514774855.3,286047001.2,N
1514774875.2,286047001.2,N
1514774895.9,286047001.2,N
1514774915.7,286047002.3,N
1514774935.6,286046998.5,N
1514774955.4,286047000.8,N
1514774975.2,286047002.4,N
1514774995.1,286047002.1,N
1514774996.0,286047002.1,N
1514775015.8,286047004.2,Y
1514775035.7,286047002.4,P
1514775055.5,286046999.9,N
1514775075.3,286046998.5,N
1514775095.2,286047000.8,N
1514775115.0,286047002.0,N
1514775115.9,286047002.0,N
1514775135.8,286047001.9,N
1514775155.6,286047002.3,N
1514775175.4,286047002.5,N
1514775195.3,286047001.7,N
1514775215.1,286047003.6,Y
1514775235.9,286047001.3,P
1514775255.7,286047001.5,P
1514775275.5,286047001.6,P
1514775295.4,286047003.2,Y
1514775315.2,286047001.3,P
1514775335.0,286047004.7,P
1514775335.9,286047004.7,N
1514775355.8,286047005.5,Y
1514775375.6,286047003.6,P
1514775395.5,286047003.8,P
1514775415.3,286047003.5,P
1514775435.1,286047003.2,Y
1514775455.9,286047000.1,P
1514775475.7,286047000.5,N
1514775495.6,286047001.4,N
1514775515.4,286047001.3,N
1514775535.2,286047002.1,N
1514775555.1,286047004.4,Y
1514775556.0,286047004.4,P
1514775575.8,286047003.6,N
1514775595.7,286047003.2,N
